Showing default

RAVAN, 41849

Orbit data source: Space-Track

RAVAN, 41849 is an American payload satellite in SSO that was launched on Fri, 11 Nov 2016 UTC via an ATLAS V 401 launch vehicle from the Air Force Western Test Range (AFWTR). Payload-class satellites include a variety of spacecraft equipped with specific instruments for various scientific and technological missions. These include communications satellites like Starlink; space stations such as the ISS; scientific satellites like the Hubble; Earth observation satellites from companies like Planet Labs, Umbra, and HawkEye 360; GPS; miniature CubeSats for education and research; and military/defense satellites.

Loading next visibility...
Identifier
41849, 2016-067B
Orbit
SSO
Country
Flag of USUS
Related business
Manufacturer
Blue Canyon
Mission
Operational Civil Tech/EO-Sci
Bus & Motor
CUBESAT 3U, Unknown motor
Mass
5 kg wet, 5 kg dry
Launch date (UTC)
2016-11-11 (9 years ago)
Launch vehicle
ATLAS V 401
Launch site
Air Force Western Test Range (AFWTR)
Object type
Payload
Rocket body
Debris
Shape & HBR
Box + 2 Pan, 0.1 m
Radar Cross Section
0.035 m², Small (<0.1 m²)

Expand to show TLE details & history
Last TLE update: 7 hours ago

TLE from 7 hours ago
0 RAVAN
1 41849U 16067B   25294.84296234  .00033212  00000-0  96198-3 0  9993
2 41849  98.0240 155.2527 0009258 118.7431 241.4742 15.35466415490903
Epoch: 2025-10-21T20:13Z
TLE epoch observation values (Epoch: 2025-10-21T20:13:51.946Z)
Latitude
Longitude
-178.73885°
Altitude
465.657 km
Speed
7.632 km/s
True Right ascension
10h 21m 00s
True Declination
0° 00' 00"
Sunlit
Object was in daylight at epoch
Visualization orbit readout
Latitude
Unknown
Longitude
Unknown
Altitude
Unknown
Speed
Unknown
Apparent Right ascension
Unknown
Apparent Declination
Unknown
Sunlit
N/A
Visualization observer readout
Local Sidereal Time
22:43:46
Azimuth
Unknown
Elevation
Unknown
Doppler factor
Unknown
Orbital elements
Apogee altitude
462.836 km
Perigee altitude
450.181 km
Semi-major axis
6,834.645 km
Eccentricity
0.00093
Inclination
98.024°
RAAN
155.2527°
Arg. of periapsis
118.7431°
True anomaly
241.38104°
Mean anomaly
241.4742°
Eccentric anomaly
241.42762°
Mean motion
3.84122 °/min
Orbital period
93.72 mins
BSTAR
0.00096198
Loading maneuver chart data...
Computing Atmospheric mass density...
Loading historical data...
Loading historical data...
Loading historical data...
Loading historical data...
Loading historical data...
Loading historical data...
Loading historical data...

Documentation

Showing up to 5 results
|